Date,TemperatureHighF,TemperatureAvgF,TemperatureLowF,DewpointHighF,DewpointAvgF,DewpointLowF,HumidityHigh,HumidityAvg,HumidityLow,PressureMaxIn,PressureMinIn,WindSpeedMaxMPH,WindSpeedAvgMPH,GustSpeedMaxMPH,PrecipitationSumIn
2013-1-1,36,30,19,26,19,6,73,64,56,30.00,29.82,7,3,0,0.00
2013-1-2,26,19,11,15,10,5,77,66,52,30.17,29.98,6,1,0,0.00
2013-1-3,27,18,7,15,7,-2,69,62,51,30.20,30.06,5,1,0,0.00
2013-1-4,36,29,22,23,19,14,78,68,57,30.06,29.90,5,2,0,0.00
2013-1-5,38,31,25,24,20,17,76,64,53,30.28,29.95,13,2,0,0.00
2013-1-6,42,32,25,30,25,19,87,74,58,30.23,29.97,4,1,0,0.00
2013-1-7,36,31,25,27,22,15,83,67,50,30.41,30.03,9,2,0,0.00
2013-1-8,47,35,23,29,25,15,81,68,48,30.42,30.33,4,1,0,0.00
2013-1-9,42,34,25,34,28,21,90,79,60,30.39,30.11,5,2,0,0.00
2013-1-10,42,37,31,33,24,21,76,57,45,30.56,30.16,12,5,0,0.00
2013-1-11,37,32,26,35,26,20,93,81,69,30.55,30.17,0,0,0,0.00
2013-1-12,43,39,35,41,37,33,94,94,93,30.19,30.11,2,0,0,0.00
2013-1-13,45,42,38,43,40,36,94,94,94,30.17,30.02,4,0,0,0.00
2013-1-14,53,44,34,49,39,25,94,82,60,30.30,29.90,11,4,0,0.00
2013-1-15,35,33,30,27,24,22,79,70,64,30.35,30.23,5,2,0,0.00
2013-1-16,32,30,28,30,28,22,93,90,65,30.25,29.83,2,0,0,0.00
2013-1-17,40,32,26,30,26,13,92,77,59,30.11,29.88,8,3,0,0.00
2013-1-18,26,21,17,13,6,1,63,51,38,30.49,30.06,11,4,0,0.00
2013-1-19,42,34,21,29,21,8,70,60,51,30.41,29.92,6,3,0,0.00
2013-1-20,49,39,26,29,23,9,74,54,33,29.99,29.64,10,5,0,0.00
2013-1-21,28,23,18,20,12,5,89,65,43,30.09,29.81,5,1,0,0.00
2013-1-22,20,16,8,16,2,-6,88,57,36,30.16,29.80,8,3,0,0.00
2013-1-23,14,8,3,-3,-5,-7,69,53,40,30.22,30.14,6,2,0,0.00
2013-1-24,17,9,1,-1,-5,-8,80,54,34,30.35,30.16,14,4,0,0.00
2013-1-25,20,14,8,11,1,-3,83,57,37,30.40,30.08,5,1,0,0.00
2013-1-26,22,15,9,11,5,0,86,65,43,30.35,30.05,11,4,0,0.00
2013-1-27,29,20,11,8,2,-4,76,47,25,30.51,30.35,8,3,0,0.00
2013-1-28,31,25,19,29,17,-1,92,74,40,30.50,30.01,1,0,0,0.00
2013-1-29,34,31,28,32,29,26,94,92,89,30.19,30.01,1,0,0,0.00
2013-1-30,55,45,33,52,43,31,94,94,93,30.15,29.42,11,2,0,0.00
2013-1-31,55,38,27,53,24,12,94,56,39,29.67,29.12,12,7,0,0.00
2013-2-1,29,24,19,16,10,5,77,54,41,30.17,29.67,9,4,0,0.00
2013-2-2,30,21,13,16,8,3,86,60,34,30.28,30.09,6,1,0,0.00
2013-2-3,29,22,15,16,14,12,88,74,54,30.09,29.79,3,0,0,0.00
2013-2-4,28,22,18,17,10,4,85,60,40,29.98,29.79,6,2,0,0.00
2013-2-5,26,23,20,21,16,7,88,76,55,30.02,29.94,1,0,0,0.00
2013-2-6,37,28,23,25,18,-1,90,67,32,30.35,29.93,6,2,0,0.00
2013-2-7,32,23,16,13,5,-1,66,46,32,30.53,30.35,6,1,0,0.00
2013-2-8,28,25,21,26,20,11,92,82,57,30.42,29.62,16,6,0,0.00
2013-2-9,24,20,15,20,12,1,91,71,43,30.30,29.71,17,11,0,0.00
2013-2-10,41,24,11,12,2,-4,63,40,18,30.48,30.30,7,2,0,0.00
2013-2-11,43,35,22,41,32,11,94,88,62,30.36,29.66,4,1,0,0.00
2013-2-12,44,37,33,37,28,23,94,71,51,29.94,29.68,8,3,0,0.00
2013-2-13,44,34,26,27,22,19,75,63,43,29.93,29.72,4,0,0,0.00
2013-2-14,44,34,26,28,24,22,91,71,43,30.00,29.72,6,1,0,0.00
2013-2-15,51,38,30,34,31,26,91,76,48,30.01,29.92,5,1,0,0.00
2013-2-16,37,31,26,32,22,15,92,71,47,29.96,29.72,9,4,0,0.00
2013-2-17,27,21,13,16,4,-1,63,48,33,29.88,29.58,15,10,0,0.00
2013-2-18,31,20,12,8,3,0,61,47,31,30.22,29.88,12,5,0,0.00
2013-2-19,43,34,25,38,25,7,93,71,45,30.22,29.63,6,1,0,0.00
2013-2-20,36,28,20,33,16,8,87,60,44,29.90,29.63,9,5,0,0.00
2013-2-21,30,22,19,14,11,9,71,62,50,30.30,29.89,14,6,0,0.00
2013-2-22,36,28,18,25,18,11,81,69,52,30.42,30.29,11,2,0,0.00
2013-2-23,35,33,31,33,29,25,93,88,77,30.31,29.86,4,0,0,0.00
2013-2-24,39,34,31,35,30,24,93,86,70,29.93,29.72,9,5,0,0.00
2013-2-25,43,34,28,27,24,22,79,67,51,30.25,29.92,9,2,0,0.00
2013-2-26,41,33,27,29,25,23,87,73,53,30.32,30.04,2,0,0,0.00
2013-2-27,40,37,32,38,35,29,94,93,87,30.06,29.56,5,2,0,0.00
2013-2-28,47,38,33,41,34,31,94,85,60,29.63,29.54,3,0,0,0.00
2013-3-1,43,36,33,32,29,26,87,74,53,29.75,29.57,9,4,0,0.00
2013-3-2,36,32,28,26,24,23,81,72,62,29.75,29.67,7,4,0,0.00
2013-3-3,31,28,25,23,20,17,80,73,62,29.72,29.65,8,5,0,0.00
2013-3-4,37,29,25,23,20,17,76,67,54,29.85,29.71,13,7,0,0.00
2013-3-5,45,35,27,27,24,20,76,63,45,30.05,29.85,9,3,0,0.00
2013-3-6,38,35,33,34,29,26,88,78,67,30.03,29.93,12,5,0,0.00
2013-3-7,35,32,30,30,28,25,92,85,71,30.06,29.95,12,9,0,0.00
2013-3-8,38,33,29,34,28,23,93,84,59,30.18,29.97,11,6,0,0.00
2013-3-9,55,40,29,25,22,18,70,50,27,30.34,30.18,11,3,0,0.00
2013-3-10,51,37,25,32,27,21,86,70,42,30.40,30.30,3,0,0,0.00
2013-3-11,50,41,34,42,36,30,93,84,68,30.33,30.12,4,1,0,0.00
2013-3-12,51,47,39,49,45,34,94,93,87,30.12,29.68,8,2,0,0.00
2013-3-13,47,39,31,34,26,20,86,63,38,29.85,29.77,8,3,0,0.00
2013-3-14,34,29,24,27,16,11,87,60,44,29.90,29.81,11,6,0,0.00
2013-3-15,41,31,22,28,17,9,78,57,35,29.93,29.71,9,4,0,0.00
2013-3-16,37,31,27,27,20,11,87,64,35,29.91,29.74,7,2,0,0.00
2013-3-17,33,28,22,26,12,6,84,52,31,30.32,29.90,12,4,0,0.00
2013-3-18,33,26,19,25,9,3,91,51,30,30.44,30.11,2,0,0,0.00
2013-3-19,35,31,27,32,29,25,93,91,88,30.12,29.67,6,3,0,0.00
2013-3-20,40,32,25,27,19,15,86,61,39,29.84,29.76,8,3,0,0.00
2013-3-21,35,30,27,21,16,9,75,55,36,29.84,29.62,6,2,0,0.00
2013-3-22,38,30,21,22,16,9,67,57,46,29.83,29.69,6,3,0,0.00
2013-3-23,42,34,28,25,19,16,72,55,35,29.89,29.75,12,5,0,0.00
2013-3-24,43,35,28,23,20,17,68,55,43,29.91,29.73,10,3,0,0.00
2013-3-25,42,36,31,27,24,22,70,61,49,29.76,29.47,8,3,0,0.00
2013-3-26,46,38,34,29,25,20,74,59,40,29.84,29.57,11,4,0,0.00
2013-3-27,50,40,30,27,22,19,70,52,33,29.93,29.83,13,4,0,0.00
2013-3-28,46,40,34,34,30,25,84,67,52,30.08,29.92,8,4,0,0.00
2013-3-29,53,43,35,32,28,26,72,57,37,30.11,30.03,8,3,0,0.00
2013-3-30,55,43,34,31,24,17,78,50,28,30.14,30.05,8,2,0,0.00
2013-3-31,54,42,30,39,25,-100,90,55,31,30.14,29.68,7,2,0,0.00
2013-4-1,60,44,32,45,36,15,93,75,45,29.85,29.57,9,3,0,0.00
2013-4-2,39,32,26,19,13,8,68,46,29,30.03,29.85,8,4,0,0.00
2013-4-3,43,34,26,15,12,8,59,42,28,30.26,30.03,9,5,0,0.00
2013-4-4,54,38,26,29,19,12,75,48,22,30.37,30.09,7,2,0,0.00
2013-4-5,58,44,36,30,24,14,78,48,19,30.09,29.71,10,5,0,0.00
2013-4-6,47,37,29,23,10,3,61,35,19,30.32,29.96,12,5,0,0.00
2013-4-7,52,40,31,32,26,17,77,57,42,30.32,30.14,8,3,0,0.00
2013-4-8,68,54,40,41,38,34,93,60,31,30.08,29.98,7,1,0,0.00
2013-4-9,73,60,47,51,44,39,93,58,34,30.03,29.89,11,2,0,0.00
2013-4-10,67,55,47,52,47,37,93,76,51,29.95,29.82,13,1,0,0.00
2013-4-11,54,50,43,50,42,25,94,76,41,30.09,29.80,8,2,0,0.00
2013-4-12,42,38,35,36,34,30,93,85,63,30.09,29.76,7,3,0,0.00
2013-4-13,53,43,34,37,34,31,93,71,46,29.95,29.76,7,2,0,0.00
2013-4-14,51,45,38,34,29,24,73,54,38,30.23,29.94,10,3,0,0.00
2013-4-15,57,44,34,32,28,23,70,55,34,30.39,30.22,3,0,0,0.00
2013-4-16,63,49,37,51,42,30,90,78,56,30.39,30.12,6,2,0,0.00
2013-4-17,63,55,47,51,37,28,91,55,29,30.31,30.11,10,4,0,0.00
2013-4-18,57,50,39,46,36,27,85,61,36,30.37,30.14,6,2,0,0.00
2013-4-19,67,59,50,61,56,46,94,90,77,30.14,29.65,10,4,0,0.00
2013-4-20,61,50,39,59,36,23,94,64,31,30.26,29.64,10,4,0,0.00
2013-4-21,52,41,31,28,20,15,66,44,25,30.64,30.26,12,4,0,0.00
2013-4-22,56,44,33,34,29,23,82,58,31,30.70,30.53,4,1,0,0.00
2013-4-23,44,39,35,38,33,27,86,78,67,30.54,30.11,8,5,0,0.00
2013-4-24,72,52,40,47,42,36,90,71,37,30.11,29.84,8,3,0,0.00
2013-4-25,59,52,43,49,32,22,93,52,26,30.27,29.85,11,4,0,0.00
2013-4-26,63,51,36,33,28,24,64,43,27,30.41,30.27,7,2,0,0.00
2013-4-27,68,52,39,38,31,26,66,45,21,30.43,30.28,6,1,0,0.00
2013-4-28,68,54,40,41,34,-100,87,51,31,30.33,30.21,5,1,0,0.00
2013-4-29,57,52,47,45,40,31,88,64,43,30.26,30.22,3,1,0,0.00
2013-4-30,67,55,44,41,32,20,83,47,21,30.35,30.23,3,1,0,0.00
2013-5-1,71,54,40,43,34,25,81,50,25,30.49,30.34,4,1,0,0.00
2013-5-2,78,59,43,45,39,35,85,53,22,30.47,30.30,3,0,0,0.00
2013-5-3,68,55,46,42,37,32,84,52,29,30.46,30.34,4,1,0,0.00
2013-5-4,72,54,41,44,41,36,91,65,31,30.38,30.22,6,1,0,0.00
2013-5-5,68,49,36,42,37,34,92,68,33,30.30,30.21,4,1,0,0.00
2013-5-6,72,54,40,50,44,37,93,73,41,30.29,30.15,6,0,0,0.00
2013-5-7,76,60,45,57,50,43,92,71,38,30.18,30.09,2,0,0,0.00
2013-5-8,67,59,55,61,56,52,94,91,76,30.15,30.00,1,0,0,0.00
2013-5-9,61,56,51,58,54,49,94,93,87,30.03,29.88,1,0,0,0.00
2013-5-10,78,62,51,59,51,-100,94,73,40,29.99,29.89,1,0,0,0.00
2013-5-11,63,60,57,61,57,53,94,92,80,29.89,29.69,3,0,0,0.00
2013-5-12,67,58,47,57,44,-100,94,66,28,29.86,29.63,11,2,0,0.00
2013-5-13,53,46,40,31,29,25,66,52,36,30.08,29.87,6,2,0,0.00
2013-5-14,56,46,37,31,28,24,73,51,31,30.10,30.02,8,2,0,0.00
2013-5-15,62,49,34,52,41,30,91,75,46,30.09,29.70,3,0,0,0.00
2013-5-16,80,59,50,52,26,-100,94,55,21,29.81,29.70,7,1,0,0.00
2013-5-17,67,58,52,41,33,-100,65,48,34,30.20,29.81,8,3,0,0.00
2013-5-18,71,56,44,48,43,37,87,63,41,30.31,30.21,2,0,0,0.00
2013-5-19,56,54,50,53,51,47,94,91,87,30.35,30.19,0,0,0,0.00
2013-5-20,80,65,54,66,59,52,94,83,57,30.19,29.95,2,0,0,0.00
2013-5-21,88,72,60,69,65,58,94,78,50,29.97,29.80,2,0,0,0.00
2013-5-22,78,64,54,69,60,52,94,88,73,29.92,29.83,6,0,0,0.00
2013-5-23,70,65,63,66,63,61,94,93,87,29.89,29.76,2,0,0,0.00
2013-5-24,63,56,44,61,53,41,94,91,80,29.88,29.65,9,3,0,0.00
2013-5-25,46,43,42,43,40,38,93,89,84,29.91,29.81,10,6,0,0.00
2013-5-26,58,49,42,40,38,36,87,67,46,30.16,29.86,12,6,0,0.00
2013-5-27,71,57,43,45,38,35,80,54,28,30.22,30.11,4,1,0,0.00
2013-5-28,71,56,45,55,47,39,94,73,40,30.22,30.14,1,0,0,0.00
2013-5-29,79,65,55,69,60,53,94,85,67,30.16,29.99,6,0,0,0.00
2013-5-30,89,75,61,69,64,59,94,72,44,30.11,30.03,3,0,0,0.00
2013-5-31,92,77,65,69,65,61,93,68,36,30.10,29.97,3,0,0,0.00
2013-6-1,89,77,67,70,65,61,84,69,46,30.00,29.89,2,0,0,0.00
2013-6-2,86,74,66,71,65,-100,93,78,59,29.90,29.74,2,0,0,0.00
2013-6-3,77,68,61,65,62,46,94,81,58,29.87,29.77,7,1,0,0.00
2013-6-4,70,60,51,48,42,37,65,52,36,30.10,29.86,9,4,0,0.00
2013-6-5,73,61,49,51,46,41,76,58,38,30.21,30.10,3,0,0,0.00
2013-6-6,70,58,49,57,51,44,93,78,58,30.16,30.05,1,0,0,0.00
2013-6-7,59,56,54,57,54,51,94,94,93,30.05,29.71,6,1,0,0.00
2013-6-8,75,62,51,62,56,49,94,81,62,30.05,29.61,7,2,0,0.00
2013-6-9,78,67,57,61,56,54,91,71,45,30.17,30.04,3,0,0,0.00
2013-6-10,71,62,57,63,58,54,94,87,73,30.17,29.91,1,0,0,0.00
2013-6-11,76,64,58,67,60,56,94,89,71,29.91,29.57,4,0,0,0.00
2013-6-12,70,64,59,56,52,49,79,67,49,29.85,29.64,10,4,0,0.00
2013-6-13,59,54,51,54,52,49,94,92,77,29.83,29.57,6,1,0,0.00
2013-6-14,70,57,49,59,52,47,94,84,56,29.85,29.57,8,3,0,0.00
2013-6-15,77,66,56,55,52,45,91,64,36,29.98,29.85,7,1,0,0.00
2013-6-16,77,66,52,62,55,47,87,70,47,29.98,29.74,2,0,0,0.00
2013-6-17,83,70,60,65,61,55,93,73,49,29.91,29.81,9,1,0,0.00
2013-6-18,82,66,58,69,60,55,94,83,56,29.91,29.80,3,0,0,0.00
2013-6-19,73,63,52,57,48,37,93,63,28,30.16,29.90,4,1,0,0.00
2013-6-20,78,62,48,57,49,44,87,66,42,30.26,30.16,2,0,0,0.00
2013-6-22,82,76,64,63,60,56,76,58,42,30.24,30.12,1,0,0,0.00
2013-6-23,88,74,61,70,63,55,89,72,41,30.18,30.04,1,0,0,0.00
2013-6-24,90,76,67,72,68,62,94,77,51,30.06,29.92,5,1,0,0.00
2013-6-25,87,74,65,73,68,63,94,82,54,29.98,29.77,4,0,0,0.00
2013-6-26,80,74,70,70,68,67,92,84,72,29.83,29.74,2,0,0,0.00
2013-6-27,81,71,65,72,67,63,94,88,72,29.83,29.61,1,0,0,0.00
2013-6-28,81,72,68,73,69,66,94,90,71,29.61,29.47,1,0,0,0.00
2013-6-29,82,73,66,71,67,64,94,84,62,29.71,29.48,1,0,0,0.00
2013-6-30,82,74,69,73,70,67,94,89,71,29.91,29.71,0,0,0,0.00
2013-7-1,73,71,70,71,69,68,94,94,94,30.05,29.91,1,0,0,0.00
2013-7-2,83,74,70,74,70,68,94,89,73,30.16,30.05,1,0,0,0.00
2013-7-3,84,76,70,74,70,68,93,85,70,30.22,30.15,3,0,0,0.00
2013-7-4,87,79,72,75,72,70,94,80,61,30.22,30.13,2,0,0,0.00
2013-7-5,90,80,72,74,72,69,90,77,57,30.19,30.06,2,0,0,0.00
2013-7-6,89,80,74,73,71,70,89,75,55,30.10,30.00,3,0,0,0.00
2013-7-7,92,81,72,77,73,69,93,76,56,30.03,29.89,1,0,0,0.00
2013-7-8,87,78,70,73,68,64,85,73,54,30.01,29.92,2,0,0,0.00
2013-7-9,84,73,67,73,68,64,94,85,65,30.07,29.99,4,0,0,0.00
2013-7-10,83,74,70,76,69,-100,94,88,76,30.02,29.80,1,0,0,0.00
2013-7-11,81,75,70,71,68,61,94,81,62,29.92,29.78,4,0,0,0.00
2013-7-12,79,71,66,67,62,56,81,73,64,30.15,29.92,4,1,0,0.00
2013-7-13,76,69,63,72,65,58,94,88,76,30.29,30.15,2,0,0,0.00
2013-7-14,88,79,72,74,72,70,94,80,60,30.32,30.21,3,0,0,0.00
2013-7-15,89,81,73,73,70,66,91,73,47,30.22,30.12,6,1,0,0.00
2013-7-16,90,81,71,69,66,64,81,63,43,30.18,30.11,6,1,0,0.00
2013-7-17,91,80,70,73,68,65,85,69,48,30.19,30.03,2,0,0,0.00
2013-7-18,92,82,74,74,71,68,84,70,52,30.04,29.94,4,0,0,0.00
2013-7-19,92,83,75,76,73,71,89,73,54,29.94,29.75,2,0,0,0.00
2013-7-20,90,80,72,75,70,-100,83,72,53,29.83,29.69,3,0,0,0.00
2013-7-21,86,75,65,67,63,58,92,69,43,29.96,29.82,3,0,0,0.00
2013-7-22,82,73,65,72,68,61,94,85,69,29.96,29.83,0,0,0,0.00
2013-7-23,85,74,71,73,71,69,94,89,64,29.83,29.54,1,0,0,0.00
2013-7-24,78,72,62,70,64,52,94,77,61,29.93,29.59,7,2,0,0.00
2013-7-25,63,59,56,57,52,47,92,79,71,30.08,29.92,5,2,0,0.00
2013-7-26,76,65,59,66,60,57,93,85,61,30.05,29.98,6,1,0,0.00
2013-7-27,81,75,64,65,63,60,89,66,53,30.06,29.97,1,0,0,0.00
2013-7-28,79,74,68,69,66,63,90,77,62,29.99,29.92,1,0,0,0.00
2013-7-29,83,72,66,69,64,53,94,78,51,30.07,29.96,3,0,0,0.00
2013-7-30,78,68,59,59,56,52,80,65,47,30.14,30.07,5,1,0,0.00
2013-7-31,80,69,59,62,58,55,89,71,47,30.15,30.04,2,0,0,0.00
2013-8-1,75,65,60,66,62,58,94,91,70,30.05,29.84,0,0,0,0.00
2013-8-2,80,70,63,65,62,58,94,77,48,29.88,29.78,3,0,0,0.00
2013-8-3,78,67,63,66,62,57,93,83,61,29.88,29.81,1,0,0,0.00
2013-8-4,77,66,56,61,56,51,93,73,47,29.94,29.83,5,1,0,0.00
2013-8-5,73,64,56,52,49,43,84,61,37,30.04,29.93,9,2,0,0.00
2013-8-6,79,64,52,61,54,48,88,73,43,30.14,30.04,1,0,0,0.00
2013-8-7,76,66,56,64,59,53,94,81,58,30.17,30.09,1,0,0,0.00
2013-8-8,81,71,67,72,68,63,94,89,72,30.09,30.01,1,0,0,0.00
2013-8-9,77,72,70,74,70,68,94,93,88,30.01,29.78,1,0,0,0.00
2013-8-10,80,72,63,70,62,52,94,72,52,30.03,29.82,3,1,0,0.00
2013-8-11,77,66,55,60,54,48,83,66,47,30.11,30.02,2,0,0,0.00
2013-8-12,80,69,60,62,59,55,92,74,44,30.04,29.92,2,0,0,0.00
2013-8-13,74,67,63,68,62,-100,94,87,71,29.93,29.69,4,0,0,0.00
2013-8-14,71,61,54,62,50,-100,93,73,52,30.01,29.72,7,2,0,0.00
2013-8-15,74,56,52,54,35,-100,88,65,40,30.14,30.01,2,0,0,0.00
2013-8-16,78,63,52,57,49,-100,92,69,44,30.21,30.12,1,0,0,0.00
2013-8-17,79,66,55,62,56,52,90,72,41,30.28,30.21,1,0,0,0.00
2013-8-18,76,65,59,64,57,-100,92,78,56,30.27,30.12,0,0,0,0.00
2013-8-19,77,64,59,64,46,-100,91,76,57,30.12,30.01,2,0,0,0.00
2013-8-20,82,70,61,63,59,-100,92,73,47,30.12,30.03,5,1,0,0.00
2013-8-21,85,72,61,66,62,59,92,74,46,30.16,30.05,3,0,0,0.00
2013-8-22,78,70,64,71,67,61,94,88,78,30.05,29.86,0,0,0,0.00
2013-8-23,78,70,62,68,58,52,94,68,45,30.11,29.85,7,3,0,0.00
2013-8-24,78,64,54,54,50,47,80,62,39,30.35,30.11,4,0,0,0.00
2013-8-25,80,65,52,58,51,-100,91,66,36,30.39,30.21,2,0,0,0.00
2013-8-26,71,66,62,66,61,55,94,82,71,30.22,29.91,0,0,0,0.00
2013-8-27,82,71,67,70,67,65,94,88,67,29.91,29.81,6,1,0,0.00
2013-8-28,88,75,65,71,66,63,94,77,55,29.91,29.82,1,0,0,0.00
2013-8-29,75,68,64,66,64,59,94,86,70,30.04,29.91,2,0,0,0.00
2013-8-30,81,69,63,68,64,59,94,84,62,30.03,29.85,1,0,0,0.00
2013-8-31,81,74,69,74,70,67,94,88,75,29.85,29.78,1,0,0,0.00
2013-9-1,79,74,71,73,69,-100,94,87,80,29.85,29.80,0,0,0,0.00
2013-9-2,76,72,67,73,70,65,94,92,86,29.83,29.67,0,0,0,0.00
2013-9-3,75,68,62,67,63,57,94,85,68,29.86,29.70,2,0,0,0.00
2013-9-4,77,66,56,59,56,53,92,73,47,29.96,29.86,4,0,0,0.00
2013-9-5,71,63,54,59,51,43,89,66,42,30.14,29.89,8,2,0,0.00
2013-9-6,68,56,45,46,42,40,83,63,37,30.26,30.13,2,0,0,0.00
2013-9-7,77,61,48,56,49,42,85,67,40,30.13,29.88,1,0,0,0.00
2013-9-8,74,64,52,61,51,-100,82,67,42,30.08,29.80,10,2,0,0.00
2013-9-9,69,57,44,52,46,40,88,70,46,30.25,30.08,1,0,0,0.00
2013-9-10,78,68,59,71,64,53,94,90,77,30.17,30.04,2,0,0,0.00
2013-9-11,93,79,70,78,72,66,94,80,59,30.10,29.96,2,0,0,0.00
2013-9-12,86,74,67,74,69,65,94,85,63,29.98,29.68,2,0,0,0.00
2013-9-13,72,65,56,65,60,50,94,82,65,29.81,29.61,7,2,0,0.00
2013-9-14,63,55,50,51,47,45,86,76,60,30.11,29.80,5,2,0,0.00
2013-9-15,68,53,44,50,43,-100,90,73,45,30.20,30.09,1,0,0,0.00
2013-9-16,66,58,50,53,51,42,92,78,55,30.26,30.04,7,2,0,0.00
2013-9-17,61,50,40,43,38,34,83,66,42,30.43,30.26,7,2,0,0.00
2013-9-18,53,43,41,42,40,39,93,90,84,30.36,30.19,0,0,0,0.00
2013-9-19,78,60,46,54,49,44,93,70,37,30.19,30.07,1,0,0,0.00
2013-9-20,80,61,48,60,53,46,94,77,41,30.09,30.01,0,0,0,0.00
2013-9-21,69,63,55,67,60,53,94,90,80,30.02,29.67,1,0,0,0.00
2013-9-22,67,59,50,65,50,-100,94,75,54,29.89,29.62,7,2,0,0.00
2013-9-23,59,50,42,43,41,38,88,71,52,30.05,29.88,7,2,0,0.00
2013-9-24,74,49,41,44,38,-100,86,73,37,30.05,29.85,6,1,0,0.00
2013-9-25,69,55,44,50,46,41,88,73,49,29.96,29.88,3,0,0,0.00
2013-9-26,66,57,51,52,50,47,92,80,56,30.11,29.96,2,0,0,0.00
2013-9-27,61,54,48,51,48,45,94,83,68,30.28,30.11,2,0,0,0.00
2013-9-28,71,58,47,55,50,45,93,78,51,30.34,30.26,2,0,0,0.00
2013-9-29,69,53,48,57,44,-100,94,80,47,30.26,30.10,1,0,0,0.00
2013-9-30,72,54,45,53,45,-100,94,78,47,30.11,29.97,0,0,0,0.00
2013-10-1,63,60,53,56,54,50,90,83,78,29.99,29.92,0,0,0,0.00
2013-10-2,77,65,55,61,57,52,93,77,53,29.99,29.90,3,0,0,0.00
2013-10-3,74,61,50,55,46,-100,87,65,42,30.11,30.01,2,0,0,0.00
2013-10-4,76,63,54,65,57,51,92,83,66,30.08,29.99,2,0,0,0.00
2013-10-5,75,64,58,64,60,55,92,85,66,30.11,30.03,0,0,0,0.00
2013-10-6,70,58,53,61,28,-100,94,77,92,30.15,30.07,0,0,0,0.00
2013-10-7,69,56,52,67,-11,-100,94,52,84,30.08,29.79,4,1,0,0.00
2013-10-8,63,54,47,52,43,38,89,67,41,30.36,29.94,10,2,0,0.00
2013-10-9,61,50,42,46,42,38,85,74,54,30.45,30.34,4,0,0,0.00
2013-10-10,56,51,45,50,46,41,90,84,78,30.34,30.14,4,1,0,0.00
2013-10-11,67,58,51,58,51,43,89,78,68,30.14,30.06,4,1,0,0.00
2013-10-12,68,57,50,55,49,42,88,76,62,30.34,30.12,6,1,0,0.00
2013-10-13,60,52,47,50,45,-100,91,81,66,30.41,30.32,2,0,0,0.00
2013-10-14,67,51,40,50,45,38,94,82,48,30.40,30.26,1,0,0,0.00
2013-10-15,72,57,49,54,47,37,92,73,45,30.28,30.14,1,0,0,0.00
2013-10-16,61,54,47,53,48,42,92,81,67,30.15,29.93,1,0,0,0.00
2013-10-17,73,62,56,61,57,54,94,85,56,29.93,29.69,1,0,0,0.00
2013-10-18,65,59,50,59,47,38,94,68,45,29.95,29.63,6,2,0,0.00
2013-10-19,64,52,41,51,42,38,89,70,40,29.98,29.75,2,0,0,0.00
2013-10-20,59,51,45,51,37,-100,93,64,40,30.05,29.72,6,2,0,0.00
2013-10-21,66,51,40,45,38,35,84,63,34,30.14,29.98,2,0,0,0.00
2013-10-22,65,52,45,50,45,37,94,77,52,29.98,29.74,3,0,0,0.00
2013-10-23,50,43,35,37,33,30,86,68,46,29.81,29.62,3,0,0,0.00
2013-10-24,51,42,34,35,30,24,87,64,38,29.96,29.72,7,1,0,0.00
2013-10-25,47,42,36,30,28,26,76,59,49,30.20,29.96,10,3,0,0.00
2013-10-26,53,43,33,32,29,25,86,61,36,30.20,29.89,6,1,0,0.00
2013-10-27,55,46,39,34,30,-100,69,55,38,30.10,29.83,6,2,0,0.00
2013-10-28,57,44,34,35,30,-100,81,61,39,30.34,30.09,6,1,0,0.00
2013-10-29,51,41,36,29,25,21,63,53,39,30.44,30.34,4,0,0,0.00
2013-10-30,51,43,34,43,34,25,90,73,63,30.37,30.20,1,0,0,0.00
2013-10-31,60,48,38,57,46,36,94,92,88,30.26,29.83,2,0,0,0.00
2013-11-1,65,61,56,61,55,49,94,82,61,29.81,29.51,8,3,0,0.00
2013-11-2,66,53,43,50,43,40,90,71,40,29.76,29.61,3,0,0,0.00
2013-11-3,46,40,30,42,28,-100,86,68,51,30.44,29.77,10,4,0,0.00
2013-11-4,42,32,26,18,15,14,65,50,33,30.69,30.45,6,1,0,0.00
2013-11-5,50,38,28,37,29,18,81,70,58,30.70,30.52,1,0,0,0.00
2013-11-6,58,49,39,48,42,35,93,78,59,30.52,30.07,4,1,0,0.00
2013-11-7,60,52,38,55,47,31,93,86,75,30.07,29.71,10,3,0,0.00
2013-11-8,46,38,31,31,28,24,80,69,46,30.16,29.88,8,2,0,0.00
2013-11-9,44,37,29,29,25,-100,79,64,48,30.27,30.02,2,0,0,0.00
2013-11-10,56,45,41,39,34,29,81,66,47,30.01,29.78,9,2,0,0.00
2013-11-11,51,43,35,31,28,25,71,56,39,30.16,29.94,10,2,0,0.00
2013-11-12,47,32,26,36,22,15,87,64,52,30.24,29.93,12,6,0,0.00
2013-11-13,34,28,22,17,14,10,68,56,38,30.35,30.24,9,4,0,0.00
2013-11-14,50,39,28,19,17,15,66,44,25,30.24,30.13,4,1,0,0.00
2013-11-15,59,48,34,26,20,14,53,36,19,30.23,30.14,2,0,0,0.00
2013-11-16,60,48,40,41,32,-100,92,60,33,30.32,30.24,4,0,0,0.00
2013-11-17,57,50,40,55,48,38,94,93,91,30.29,29.84,2,0,0,0.00
2013-11-18,63,56,47,58,42,25,94,64,36,29.82,29.57,9,3,0,0.00
2013-11-19,45,38,30,28,23,17,64,55,46,30.33,29.72,13,7,0,0.00
2013-11-20,40,31,25,17,13,8,65,50,27,30.64,30.34,7,2,0,0.00
2013-11-21,46,34,22,34,23,14,77,64,43,30.65,30.41,1,0,0,0.00
2013-11-22,49,46,42,46,42,36,94,88,78,30.41,29.87,4,0,0,0.00
2013-11-23,49,37,28,46,23,-100,89,60,37,30.00,29.86,12,5,0,0.00
2013-11-24,27,21,18,11,3,-2,70,46,33,30.32,29.91,16,8,0,0.00
2013-11-25,32,24,14,14,9,5,71,55,40,30.46,30.31,4,1,0,0.00
2013-11-26,37,32,29,32,21,12,93,64,48,30.34,29.96,2,0,0,0.00
2013-11-27,60,43,34,58,41,28,94,90,75,29.93,29.32,11,4,0,0.00
2013-12-14,20,14,12,13,8,-100,87,79,59,30.55,30.04,6,2,0,0.00
2013-12-15,32,27,15,29,23,12,94,87,78,30.00,29.53,8,3,0,0.00
2013-12-16,27,22,13,21,11,4,79,63,47,30.22,29.78,7,2,0,0.00
2013-12-17,16,12,5,13,8,1,87,83,69,30.25,29.98,6,1,0,0.00
2013-12-18,31,25,16,21,19,13,86,76,64,30.14,29.95,5,1,0,0.00
2013-12-19,42,33,25,27,22,17,76,65,49,30.16,30.00,5,2,0,0.00
2013-12-20,50,41,31,33,30,25,80,65,49,30.12,29.96,4,1,0,0.00